Wissant - Hors Challenge

le Trail de la Côte d'Opale à Wissant (62.00 km)

dimanche 10 septembre 2017

Le Classement original se trouve sur : http://www.chronorace.be
 
LE TRAIL DE LA CÔTE D'OPALE - WISSANT
DISTANCE : 62.00 km
dimanche 10 septembre 2017
 
Place Dos NOM Pays Catégorie Pl/cat temps temps/km Vitesse
1 65 BREUIL THIERRY FRA V1 1 4:42:08 04:33 13.19
2 58 BOURGUENOLLE PIERRE-ARNAUD FRA SH 1 4:45:54 04:37 13.01
3 448 PRUVOT GUILLAUME FRA SH 2 5:01:50 04:52 12.32
4 539 LEJEUNE FREDERIC FRA V2 1 5:03:24 04:54 12.26
5 632 CAMPAGNE XAVIER FRA SH 3 5:07:07 04:57 12.11
6 88 BORDET DOMINIQUE FRA V1 2 5:08:39 04:59 12.05
7 465 SOHIER SYLVAIN FRA SH 4 5:10:26 05:00 11.98
8 477 SENECHAL JULIEN FRA SH 5 5:14:52 05:05 11.81
9 650 MEURILLON HERVE FRA V2 2 5:16:05 05:06 11.77
10 352 BOWIE MICHEL FRA V1 3 5:16:40 05:06 11.75
11 478 DESCAMPS SIMON FRA SH 6 5:17:48 05:08 11.71
12 627 BEYLS AYMERIC FRA V1 4 5:24:17 05:14 11.47
13 101 LE TORTOREC PIERRE FRA SH 7 5:27:13 05:17 11.37
14 8 CAULLIEZ BENOIT FRA SH 8 5:27:31 05:17 11.36
15 142 MAIBACH FRANÇOIS FRA SH 9 5:30:00 05:19 11.27
16 649 FIÉVET GUILLAUME FRA SH 10 5:30:12 05:20 11.27
17 283 VERSCHEURE ELODIE FRA SD 1 5:32:20 05:22 11.19
18 195 LUCAK HERVE FRA V2 3 5:32:47 05:22 11.18
19 621 LOEUILLLIEUX PIERRE FRA SH 11 5:33:16 05:23 11.16
20 41 LIMOUSIN STEPHANE FRA V1 5 5:34:36 05:24 11.12
21 459 GARA YANSE FRA SH 12 5:34:42 05:24 11.11
22 13 JURAS JULIEN FRA SH 13 5:35:04 05:24 11.10
23 163 GIBERT STEPHANIE FRA SD 2 5:36:53 05:26 11.04
24 36 DONNIZAUX ANTOINE FRA SH 14 5:36:54 05:26 11.04
25 591 VALQUE BENOIT FRA SH 15 5:39:23 05:28 10.96
26 439 MOISSON JEAN-FRANCOIS FRA V1 6 5:45:29 05:34 10.77
27 103 DUFROU ANTHONY FRA SH 16 5:46:59 05:36 10.72
28 143 VANDEWALLE THOMAS FRA SH 17 5:49:24 05:38 10.65
29 433 PUTMAN NICOLAS FRA SH 18 5:50:40 05:39 10.61
30 219 FACQ GRÉGORY FRA V1 7 5:52:36 05:41 10.55
31 658 LIERE THOMAS FRA SH 19 5:53:01 05:42 10.54
32 691 DESERT FABIEN FRA V1 8 5:53:01 05:42 10.54
33 155 DELANNOY ELISE FRA SD 3 5:53:25 05:42 10.53
34 623 CRISPILS THOMAS FRA SH 20 5:56:25 05:45 10.44
35 620 BOULANGER DAVID FRA V1 9 5:58:08 05:47 10.39
36 651 DELBECQ GUILLAUME FRA SH 21 6:00:18 05:49 10.32
37 652 DELBECQ JEAN-FRANCOIS FRA SH 22 6:00:19 05:49 10.32
38 218 SIMOES MICKAEL FRA SH 23 6:02:38 05:51 10.26
39 264 TALPAERT FÉLIX FRA SH 24 6:03:11 05:51 10.24
40 443 LABRADOR JUAN CARLOS FRA V1 10 6:06:05 05:54 10.16
41 468 EVERAERE THOMAS FRA SH 25 6:06:25 05:55 10.15
42 347 BIGO JEAN-BAPTISTE FRA SH 26 6:07:24 05:56 10.13
43 90 BAUDEL PIERRE FRA V2 4 6:07:29 05:56 10.12
44 429 VERBRUGGHE XAVIER FRA V1 11 6:07:46 05:56 10.12
45 282 MOROY JEROME FRA SH 27 6:08:42 05:57 10.09
46 185 DAVIN GUILLAUME FRA V2 5 6:09:12 05:57 10.08
47 116 BLONDEEL DAVID FRA V1 12 6:09:43 05:58 10.06
48 707 FALISSE GAIZKA BEL SH 28 6:12:17 06:00 9.99
49 554 BARBERIO GUILLAUME FRA SH 29 6:13:02 06:01 9.97
50 670 BOUCHERY REMI FRA V1 13 6:14:50 06:03 9.92
51 625 VANKEIRSBILCK MAXIME FRA SH 30 6:15:42 06:04 9.90
52 31 MONEUSE UGO FRA SH 31 6:16:05 06:04 9.89
53 259 GARCIA BORIS FRA V1 14 6:16:35 06:04 9.88
54 415 RICHARD RÉGINALD FRA V1 15 6:17:16 06:05 9.86
55 273 MIEZE SEBASTIEN FRA SH 32 6:17:29 06:05 9.85
56 631 BOURREZ FRANCOIS FRA SH 33 6:17:40 06:05 9.85
57 206 PONCHON MICHEL BEL V2 6 6:20:01 06:08 9.79
58 202 BRETON CHRISTOPHE USA V1 16 6:20:08 06:08 9.79
59 572 MARIA OLIVIER FRA SH 34 6:20:43 06:08 9.77
60 473 LACOMBE CHRISTIANE FRA A2 1 6:21:01 06:09 9.76
61 719 TIESSET PHILIPPE FRA SH 35 6:21:01 06:09 9.76
62 578 LHOMME LAURENT FRA V1 17 6:21:07 06:09 9.76
63 646 MARCOURT GEOFFRAY FRA SH 36 6:21:35 06:09 9.75
64 115 STECULORUM PIERRE FRA SH 37 6:21:56 06:10 9.74
65 430 DE MEERSCHMAN SEBASTIEN FRA V1 18 6:22:43 06:10 9.72
66 548 ALLAËRT CLAUDE FRA V2 7 6:23:15 06:11 9.71
67 421 GONGORA SÉBASTIEN FRA V1 19 6:23:34 06:11 9.70
68 332 MAILLOT PATRICE FRA V1 20 6:24:55 06:12 9.66
69 480 LORCHNER GUILLAUME FRA SH 38 6:25:05 06:13 9.66
70 562 COUPIN FRANCK FRA SH 39 6:25:11 06:13 9.66
71 659 CHARTAUX RAPHAEL FRA V2 8 6:27:06 06:15 9.61
72 18 SEILLIER NICOLAS FRA SH 40 6:27:25 06:15 9.60
73 533 FILLAUD THOMAS FRA SH 41 6:28:01 06:15 9.59
74 686 SELWA MATHIEU FRA SH 42 6:28:24 06:16 9.58
75 170 KOLODZIEJCZYK FRANCOIS FRA V1 21 6:29:20 06:17 9.55
76 105 ROUSSELOT OLIVIER FRA V1 22 6:29:44 06:17 9.54
77 495 TOURNOUX ALEXANDRA FRA SD 4 6:29:53 06:17 9.54
78 217 LYON FRANCOIS FRA V3 1 6:29:56 06:17 9.54
79 594 COLOMB BERTRAND FRA V1 23 6:30:03 06:17 9.54
80 597 MENET ERIC FRA V1 24 6:32:04 06:19 9.49
81 657 DEPAUW EMMANUEL BEL V2 9 6:33:35 06:21 9.45
82 96 DUPONT FRANÇOIS FRA V1 25 6:34:54 06:22 9.42
83 528 DEWULF NICOLAS FRA SH 43 6:36:33 06:24 9.38
84 440 STRECK JEAN-PHILIPPE FRA V1 26 6:36:47 06:24 9.38
85 419 STRECK ANTOINE FRA SH 44 6:36:49 06:24 9.37
86 470 OLLEVILLE EMMANUEL FRA SH 45 6:37:15 06:24 9.36
87 357 DUCROCQ YVES FRA V3 2 6:37:39 06:25 9.35
88 180 GUETEMME GILLES FRA V1 27 6:38:52 06:26 9.33
89 476 HULOT ROMAIN FRA SH 46 6:38:59 06:26 9.32
90 99 VILLIERE MAXIME FRA SH 47 6:39:51 06:27 9.30
91 145 VENTURA ALBERTO PRT V2 10 6:40:11 06:27 9.30
92 152 TINCHON DIDIER FRA V2 11 6:40:26 06:28 9.29
93 149 MARECHAL NICOLAS FRA SH 48 6:40:57 06:28 9.28
94 77 OIKNINE MANUEL FRA SH 49 6:40:59 06:28 9.28
95 342 BOUDRY STEPHANE FRA V1 28 6:41:22 06:28 9.27
96 508 FASQUELLE FRANÇOIS FRA SH 50 6:42:08 06:29 9.25
97 284 D'HALLENDRE CHARLES FRA V1 29 6:42:11 06:29 9.25
98 38 DEBUYZER ARNAUD FRA V1 30 6:42:22 06:29 9.25
99 481 DESPREAUX JEREMY FRA SH 51 6:42:37 06:30 9.24
100 358 DUBOIS JULIEN FRA V1 31 6:42:37 06:30 9.24
101 432 VAT JULIEN FRA SH 52 6:42:49 06:30 9.23
102 84 DENEUX CEDRIC FRA SH 53 6:43:11 06:30 9.23
103 661 LIEKENS DENIS FRA V1 32 6:44:22 06:31 9.20
104 50 JACOBS JAN BEL SD 5 6:44:33 06:31 9.20
105 575 HOLLE LIONEL FRA SH 54 6:45:15 06:32 9.18
106 420 FARDOUX GAUTHIER FRA SH 55 6:45:27 06:32 9.17
107 5 DUMORTIER BENJAMIN FRA V1 33 6:45:27 06:32 9.17
108 526 MENUGE LAURENT FRA V1 34 6:45:52 06:33 9.17
109 417 BOLLENGIER NICOLAS FRA SH 56 6:45:59 06:33 9.16
110 426 LEGRAND GAUTHIER FRA SH 57 6:47:19 06:34 9.13
111 557 DAUCHELLE NICOLAS FRA SH 58 6:47:29 06:34 9.13
112 232 VERMOESEN PHILIPPE BEL V1 35 6:47:48 06:35 9.12
113 124 PETIT THOMAS FRA SH 59 6:48:12 06:35 9.11
114 198 LETERME ERIC FRA SH 60 6:48:52 06:36 9.10
115 205 DOS SANTOS AMARAL PAULO FRA V1 36 6:49:56 06:37 9.07
116 626 TESSIER LAURENT FRA V1 37 6:50:01 06:37 9.07
117 672 CABARDOS RENE FRA V1 38 6:50:26 06:37 9.06
118 254 WITKOWSKI YOANN FRA SH 61 6:50:32 06:37 9.06
119 23 ROCOURT CHRISTOPHE FRA V2 12 6:51:18 06:38 9.04
120 151 CUISINIER SOPHIE FRA SD 6 6:51:32 06:38 9.04
121 135 CARPENTIER JEAN-RENE FRA V2 13 6:51:55 06:39 9.03
122 662 LACROIX CHRISTOPHE FRA V1 39 6:52:54 06:40 9.01
123 215 PICHA CHARLEY FRA V1 40 6:52:58 06:40 9.01
124 498 HIEL CLAUDE FRA V3 3 6:54:50 06:41 8.97
125 499 PREVOST YANNICK FRA V1 41 6:55:15 06:42 8.96
126 640 DE BRUYNE ANNE SOPHIE FRA A1 1 6:55:24 06:42 8.96
127 453 PARANTHOEN JULIEN FRA SH 62 6:55:42 06:42 8.95
128 334 BREQUEVILLE DAVID FRA V1 42 6:56:06 06:43 8.94
129 33 TOURNAY MARTIN FRA SH 63 6:56:39 06:43 8.93
130 172 CLERGEAU JULIEN FRA SH 64 6:56:42 06:43 8.93
131 328 ANCELET FREDERIC FRA V2 14 6:57:15 06:44 8.92
132 487 BUHOT NICOLAS FRA SH 65 6:58:02 06:45 8.90
133 196 MOTTEZ PAUL FRA V1 43 6:58:15 06:45 8.89
134 250 PLUVINAGE CHRISTOPHE FRA V1 44 6:58:29 06:45 8.89
135 442 JOSEPH THOMAS FRA SH 66 6:58:35 06:45 8.89
136 497 VANDENDORPE NATACHA FRA SD 7 6:58:36 06:45 8.89
137 3 SPILLIAERT BRUNO   V1 45 6:58:41 06:45 8.88
138 343 DIDIOT JEAN-LOUIS FRA SH 67 6:58:43 06:45 8.88
139 418 LENGLIN PASCAL FRA V2 15 6:59:27 06:46 8.87
140 166 GANTIEZ MAXIME FRA SH 68 6:59:33 06:46 8.87
141 496 FRANCIGNY ANTOINE FRA SH 69 6:59:35 06:46 8.87
142 643 TÉTARD EMMANUEL FRA SH 70 7:00:07 06:47 8.85
143 428 GUERY CHRISTOPHE FRA V2 16 7:01:51 06:48 8.82
144 95 MONNIER PASCALE FRA A2 2 7:02:30 06:49 8.80
145 687 CROIZIER PHILIPPE FRA V2 17 7:02:35 06:49 8.80
146 81 SEGARD AYMERIC FRA SH 71 7:03:06 06:49 8.79
147 446 LEMIRE BENJAMIN FRA V1 46 7:03:22 06:50 8.79
148 447 LEMIRE SEBASTIEN FRA V1 47 7:03:23 06:50 8.79
149 97 DELECROIX GRÉGOIRE FRA SH 72 7:03:24 06:50 8.79
150 521 OFFERMAN DANY BEL SH 73 7:03:56 06:50 8.77
151 100 GOUZOUGUEN CEDRIC FRA V1 48 7:04:43 06:51 8.76
152 144 FLAMENT CEDRIC FRA SH 74 7:04:52 06:51 8.76
153 164 ROSEY CHRISTOPHE FRA V1 49 7:04:56 06:51 8.75
154 211 ROBINE ALEXANDRE FRA SH 75 7:05:05 06:51 8.75
155 603 BEAUDET FABRICE FRA V1 50 7:05:44 06:52 8.74
156 266 ROCOURT ERIC FRA V2 18 7:06:04 06:52 8.73
157 132 LEDUC GREGORY FRA V1 51 7:06:27 06:53 8.72
158 558 CHOUROT LUCIEN FRA V3 4 7:06:33 06:53 8.72
159 653 PIERARD ALEXANDRE BEL V1 52 7:07:05 06:53 8.71
160 674 DUDOIGNON KARL FRA V1 53 7:07:15 06:53 8.71
161 561 DELAMOTTE MARC FRA V2 19 7:07:23 06:54 8.70
162 32 VARLET MICHAEL FRA SH 76 7:07:42 06:54 8.70
163 510 BELLOIR YOANN FRA V1 54 7:07:49 06:54 8.70
164 692 BODO THIERRY FRA V1 55 7:09:05 06:55 8.67
165 520 OFFERMANN CHARLES FRA V1 56 7:09:14 06:55 8.67
166 223 GARILLOT XAVIER FRA V2 20 7:09:15 06:55 8.67
167 228 WATTIEZ CHRISTOPHE BEL V1 57 7:10:05 06:56 8.65
168 602 VANDENBUSSCHE SÉBASTIEN FRA V1 58 7:10:41 06:57 8.64
169 231 LOEUILLIEUX JULIEN FRA SH 77 7:11:25 06:57 8.62
170 488 GIRARD MARTIN FRA V1 59 7:11:49 06:58 8.61
171 51 JUST DAVID FRA SH 78 7:11:53 06:58 8.61
172 214 MOLLET XAVIER FRA V1 60 7:12:17 06:58 8.61
173 260 TESSE ROMAIN FRA V1 61 7:12:28 06:59 8.60
174 532 MARTIN YANNICK FRA SH 79 7:12:58 06:59 8.59
175 186 LOUIS LAURENT FRA V1 62 7:13:17 06:59 8.59
176 519 GARNIER VINCENT FRA SH 80 7:13:24 06:59 8.58
177 425 DESTENAY PHILIPPE FRA V2 21 7:13:56 07:00 8.57
178 514 SAND OLIVIER FRA SH 81 7:13:58 07:00 8.57
179 569 WOJTKOWIAK FREDERIC FRA V1 63 7:13:58 07:00 8.57
180 237 MEAUX SEBASTIEN FRA SH 82 7:14:56 07:01 8.55
181 92 GRIMONPONT JULIEN FRA SH 83 7:15:27 07:01 8.54
182 538 DONNETTE YOHANN FRA SH 84 7:15:53 07:02 8.53
183 108 TANTON AYMERIC FRA SH 85 7:15:54 07:02 8.53
184 555 LEMATTRE DOMINIQUE FRA V1 64 7:15:59 07:02 8.53
185 441 STRECK VINCENT FRA SH 86 7:16:08 07:02 8.53
186 669 QUESTE THIERRY FRA V2 22 7:16:11 07:02 8.53
187 492 CAEYSEELE MATHIEU FRA SH 87 7:16:29 07:02 8.52
188 484 DURIEUX LAURENT FRA SH 88 7:16:29 07:02 8.52
189 614 HECQUET XAVIER FRA SH 89 7:16:36 07:03 8.52
190 544 COQUELAERE SÉBASTIEN FRA SH 90 7:16:37 07:03 8.52
191 175 GHEERARDYN FRANCK FRA V1 65 7:17:09 07:03 8.51
192 119 GORLOO JOHNNY FRA SH 91 7:17:18 07:03 8.51
193 168 LEMAY ERIC FRA V2 23 7:17:18 07:03 8.51
194 118 LAPIERRE DAMIEN FRA SH 92 7:17:18 07:03 8.51
195 61 ASTORGA SEBASTIEN FRA V1 66 7:17:20 07:03 8.51
196 106 GRASSELLI SABRINA FRA SD 8 7:17:35 07:03 8.50
197 39 BRAYE LAURENT BEL V1 67 7:17:45 07:04 8.50
198 24 DUPLA LAURENT FRA V1 68 7:17:51 07:04 8.50
199 203 LUCAK CELINE FRA A1 2 7:17:56 07:04 8.49
200 69 BOURSE DANY-CHRISTOPHE FRA SH 93 7:18:25 07:04 8.49
201 243 GAL MATHIEU FRA SH 94 7:18:29 07:04 8.48
202 705 PERRAULT DAVID FRA V1 69 7:19:40 07:05 8.46
203 15 GROJEAN MARC FRA SH 95 7:19:56 07:06 8.46
204 710 DUCASTELLE JEAN MARIE FRA V2 24 7:19:57 07:06 8.46
205 586 FREZE ANTOINE FRA V1 70 7:20:03 07:06 8.45
206 353 MARQUIS CHRISTELLE FRA A1 3 7:20:06 07:06 8.45
207 12 RAUX PHILIPPE FRA V2 25 7:20:15 07:06 8.45
208 350 HAMONIC PHILIPPE FRA V2 26 7:20:26 07:06 8.45
209 271 GOEURY CHARLES HENRI FRA SH 96 7:20:26 07:06 8.45
210 16 DE GRAVE OLIVIER BEL V2 27 7:20:29 07:06 8.45
211 435 BUISINE DAVID FRA V1 71 7:20:39 07:06 8.44
212 436 PINTE PAMÉLA FRA A1 4 7:20:39 07:06 8.44
213 281 HALLAF FRANÇOIS FRA V2 28 7:20:39 07:06 8.44
214 635 DICKS ANDRE FRA SH 97 7:20:43 07:07 8.44
215 634 CAPDEVILA CATHERINE FRA A1 5 7:20:43 07:07 8.44
216 258 SCHULSSE THIERRY BEL V1 72 7:20:50 07:07 8.44
217 19 VILLERS ANNE-SOPHIE FRA A1 6 7:20:50 07:07 8.44
218 546 DULOT PASCALINE FRA A1 7 7:21:12 07:07 8.43
219 14 TASSART HELENE FRA SD 9 7:21:12 07:07 8.43
220 131 BERNIER DAVID FRA V1 73 7:21:23 07:07 8.43
221 242 AMMENDOLA ANTONIO BEL SH 98 7:21:36 07:07 8.42
222 329 ANNALORO CHRISTOPHE FRA SH 99 7:22:40 07:08 8.40
223 335 LAUWERS LUDOVIC FRA V1 74 7:22:40 07:08 8.40
224 506 BONDUAU SÉBASTIEN FRA V1 75 7:22:40 07:08 8.40
225 241 GODFROID YVES BEL V2 29 7:22:44 07:08 8.40
226 504 MONBAILLEU FILIP BEL V1 76 7:22:57 07:09 8.40
227 505 VELGHE ROBIN BEL SH 100 7:22:57 07:09 8.40
228 482 MOREL MATHIEU FRA SH 101 7:23:53 07:10 8.38
229 76 MAROGLOU LÉNI FRA SH 102 7:23:58 07:10 8.38
230 37 MICHEL GILDAS FRA SH 103 7:23:58 07:10 8.38
231 272 DELACHAMBRE NICOLAS FRA SH 104 7:23:59 07:10 8.38
232 173 CARRARA TONY FRA SH 105 7:24:11 07:10 8.37
233 605 TOP EMMANUEL FRA V1 77 7:24:13 07:10 8.37
234 45 GOURDAIN FRANCK FRA V1 78 7:24:14 07:10 8.37
235 680 BORDIER KARL FRA V1 79 7:24:25 07:10 8.37
236 10 GUILBERT MICKAEL FRA V1 80 7:25:08 07:11 8.36
237 463 FICHEUX DAVID FRA V1 81 7:25:42 07:11 8.35
238 617 LELOUX DOMINIQUE BEL V2 30 7:26:15 07:12 8.34
239 117 TANTON GUILLAUME FRA SH 106 7:26:27 07:12 8.33
240 21 YOUSFI KARIM FRA V1 82 7:26:37 07:12 8.33
241 156 DELANNOY NICOLAS FRA SH 107 7:27:18 07:13 8.32
242 682 PINA BORGES JULIO FRA V1 83 7:27:43 07:13 8.31
243 549 LEBLANC GERALD FRA V1 84 7:28:30 07:14 8.29
244 178 LOTE MICKAEL FRA V1 85 7:28:38 07:14 8.29
245 584 LEHU PASCAL FRA V2 31 7:28:39 07:14 8.29
246 257 HERBIN AURELIEN FRA SH 108 7:28:39 07:14 8.29
247 236 NAWROCKI CHRISTIAN FRA V1 86 7:28:39 07:14 8.29
248 255 STRUYVEN HERVE FRA V2 32 7:29:05 07:15 8.28
249 531 DEPOILLY BORIS FRA SH 109 7:29:44 07:15 8.27
250 158 LIERMANN CHRISTOPHE FRA V1 87 7:30:16 07:16 8.26
251 585 KYNDT DANY FRA V1 88 7:30:17 07:16 8.26
252 107 THOREZ BRUNO FRA V2 33 7:30:19 07:16 8.26
253 200 PARESYS TONY FRA SH 110 7:30:52 07:16 8.25
254 189 ALLART MATHIEU FRA SH 111 7:31:05 07:17 8.25
255 581 PALGEN OLIVIER BEL V1 89 7:31:16 07:17 8.24
256 48 FIEROBE THIERRY FRA V1 90 7:31:20 07:17 8.24
257 461 CHAMPION THOMAS FRA SH 112 7:31:27 07:17 8.24
258 344 DURON MICKAËL FRA SH 113 7:31:56 07:17 8.23
259 576 BENFIALA FEISSAL FRA SH 114 7:32:04 07:17 8.23
260 462 DEBRAY KÉVIN FRA SH 115 7:32:30 07:18 8.22
261 327 DESCHAMPS PAUL FRA SH 116 7:33:35 07:19 8.20
262 713 CRANDAL CHRISTOPHE FRA V1 91 7:33:36 07:19 8.20
263 246 BAVIERE FABIEN FRA V1 92 7:34:22 07:20 8.19
264 263 PERET CLAIRE FRA SD 10 7:34:24 07:20 8.19
265 11 FEYS EMMANUEL FRA V1 93 7:34:25 07:20 8.19
266 49 ARSENE GUILLAUME FRA SH 117 7:34:28 07:20 8.19
267 322 MARQUEGNIES PASCAL FRA V2 34 7:34:31 07:20 8.18
268 624 DEJONGHE CARO FRA A1 8 7:34:54 07:20 8.18
269 233 BAUDOUX GILLES FRA V2 35 7:35:47 07:21 8.16
270 676 MALLIOPOULOS XAVIER FRA V2 36 7:35:54 07:21 8.16
271 83 MOULIOM AIME FRA SH 118 7:36:49 07:22 8.14
272 330 CARPENTIER-LUDOVIC LUDOVIC FRA SH 119 7:36:53 07:22 8.14
273 190 GEUSE JULIEN BEL SH 120 7:37:39 07:23 8.13
274 207 DAGNEAUX CHRISTOPHE BEL SH 121 7:37:40 07:23 8.13
275 550 METTIER JEAN-FRANCOIS FRA V1 94 7:37:48 07:23 8.13
276 511 VERCAEMER ARNAUD FRA V2 37 7:38:27 07:24 8.11
277 240 CARLIER JEREMY FRA SH 122 7:39:01 07:24 8.10
278 201 DEWEZ JULIEN FRA SH 123 7:39:09 07:24 8.10
279 244 DELAIRE MARTIAL FRA V2 38 7:39:16 07:24 8.10
280 147 DELAIRE QUENTIN FRA SH 124 7:39:16 07:24 8.10
281 590 ROBERTI DAPHNÉ BEL A1 9 7:39:28 07:25 8.10
282 25 CAINE FREDERIC FRA V1 95 7:39:40 07:25 8.09
283 694 SELWA FREDERIC FRA V2 39 7:40:04 07:25 8.09
284 171 CARRE MATHIEU FRA V1 96 7:40:10 07:25 8.08
285 277 DE VRIES KOEN NLD V3 5 7:40:17 07:25 8.08
286 187 LEFEVRE JEAN-CHRISTOPHE FRA V2 40 7:41:00 07:26 8.07
287 535 ARNALDOS BENJAMIN FRA SH 125 7:41:23 07:26 8.06
288 567 DELEPAUT NICOLAS FRA SH 126 7:41:50 07:27 8.05
289 340 DUFOUR THOMAS FRA SH 127 7:42:34 07:28 8.04
290 424 BERNICOT OLIVIER FRA V1 97 7:43:07 07:28 8.03
291 467 COUPIER DAVID FRA SH 128 7:43:07 07:28 8.03
292 683 CARNAILLE LAURENT FRA SH 129 7:43:38 07:29 8.02
293 4 DUMOULIN FLORENTIN   SH 130 7:43:49 07:29 8.02
294 472 DUPUIS ADRIEN FRA SH 131 7:43:50 07:29 8.02
295 208 FICKERS FREDERIC FRA V1 98 7:44:07 07:29 8.02
296 80 DEMEESTERER DIDIER BEL SH 132 7:44:17 07:29 8.01
297 469 TOLBECQ STEPHANE BEL V1 99 7:44:41 07:30 8.01
298 7 MOREELS OLIVIER FRA V1 100 7:45:10 07:30 8.00
299 706 CHAIDRON RAPHAËL BEL SH 133 7:45:12 07:30 8.00
300 9 DUFOREST LOÏC FRA SH 134 7:45:35 07:31 7.99
301 245 LABALETTE LUDOVIC FRA V1 101 7:45:36 07:31 7.99
302 276 DESCOMBES GUILLAUME FRA SH 135 7:45:43 07:31 7.99
303 261 VANDAELE JEROME FRA SH 136 7:46:05 07:31 7.98
304 690 NOEL JEREMIE FRA SH 137 7:46:13 07:31 7.98
305 86 HOUZET ELIE FRA SH 138 7:46:43 07:32 7.97
306 534 CRESPIN NICOLAS FRA V1 102 7:46:57 07:32 7.97
307 324 MARLIER ERIC FRA V2 41 7:47:08 07:32 7.96
308 139 DUBOIS ALAIN FRA V2 42 7:47:19 07:32 7.96
309 475 CREPIN PHILIPPE FRA V3 6 7:47:20 07:32 7.96
310 162 DELELIS LUDOVIC FRA V1 103 7:47:23 07:32 7.96
311 677 DUBARRY DAVID FRA V1 104 7:47:23 07:32 7.96
312 160 LAVERSIN SAMUEL FRA SH 139 7:47:23 07:32 7.96
313 331 NGHI DAVID FRA V1 105 7:47:23 07:32 7.96
314 422 DEGELCKE THIERRY FRA V2 43 7:47:23 07:32 7.96
315 220 WROBEL PHILIPPE FRA SH 140 7:47:25 07:32 7.96
316 675 CALON ERIC FRA V2 44 7:47:36 07:33 7.96
317 491 LALOUX FRANÇOIS FRA SH 141 7:47:41 07:33 7.95
318 660 REYNAUD GILLES FRA V2 45 7:48:06 07:33 7.95
319 711 GENCE MICHEL FRA V3 7 7:48:25 07:33 7.94
320 22 BLAS GREGORY FRA V1 106 7:48:49 07:34 7.93
321 517 VANDEWIELE DAVID FRA V1 107 7:49:00 07:34 7.93
322 601 LALLEMAN SERGE FRA V3 8 7:49:15 07:34 7.93
323 485 WALLE ALEXANDRE FRA SH 142 7:49:21 07:34 7.93
324 230 LAMBOTIN PASCAL FRA V2 46 7:49:39 07:34 7.92
325 607 MILLARD FRANCK FRA V2 47 7:50:25 07:35 7.91
326 226 CARLIER FRANCK FRA V1 108 7:51:51 07:37 7.88
327 62 MASSON ROMAIN FRA SH 143 7:52:13 07:37 7.88
328 323 RIGAUT LAURENT FRA V1 109 7:52:13 07:37 7.88
329 587 GRESSIER MEDHY FRA SH 144 7:52:21 07:37 7.88
330 500 GRATEPANCHE CHRISTIAN FRA V1 110 7:52:23 07:37 7.87
331 648 NOTTELLET MARC FRA V1 111 7:52:49 07:38 7.87
332 493 PROST DOMINIQUE FRA V2 48 7:53:18 07:38 7.86
333 566 JOINEAU JEAN-CLAUDE FRA V2 49 7:53:20 07:38 7.86
334 525 DUFOUR MAXIME FRA SH 145 7:54:19 07:39 7.84
335 227 MAURIAUCOURT TONY FRA V1 112 7:54:46 07:39 7.84
336 212 CHABAS EMMANUEL FRA V1 113 7:55:14 07:40 7.83
337 512 DUCHATEAU RENE BEL V1 114 7:55:20 07:40 7.83
338 356 MARCINIAK ROGER FRA V1 115 7:55:20 07:40 7.83
339 679 COEUGNET REMI FRA SH 146 7:56:08 07:41 7.81
340 136 CARON MATHIEU FRA SH 147 7:56:25 07:41 7.81
341 126 VERCAEMER JEROME FRA V2 50 7:57:11 07:42 7.80
342 125 CHANTRAINE FABRICE FRA V1 116 7:57:11 07:42 7.80
343 564 SPARTY MICHAEL FRA SH 148 7:57:11 07:42 7.80
344 146 RIEM CLAUDE FRA V1 117 7:57:39 07:42 7.79
345 87 LEGRAND OLIVIER FRA V2 51 7:57:54 07:42 7.78
346 138 VIOL SANDRINE FRA SD 11 7:57:59 07:43 7.78
347 494 RIQUET MAXIME FRA SH 149 7:58:01 07:43 7.78
348 595 SABLON EMMANUEL FRA V1 118 7:58:02 07:43 7.78
349 140 BOUCHER NICOLAS FRA V1 119 7:58:09 07:43 7.78
350 213 DELATTRE REMY FRA SH 150 7:58:25 07:43 7.78
351 325 FRICHOT ALEXANDRE FRA SH 151 7:58:25 07:43 7.78
352 580 EVRARD HUGUES BEL V1 120 7:58:29 07:43 7.77
353 153 HAIDAR NAEF FRA V2 52 7:58:29 07:43 7.77
354 75 LAURENT BERNARD FRA V1 121 7:58:39 07:43 7.77
355 68 BIRLOUEZ ARNAUD FRA SH 152 7:58:43 07:43 7.77
356 665 OUBRAM BRAHIM MAR SH 153 7:58:54 07:43 7.77
357 431 SCHERPEREEL ALAIN FRA V2 53 7:58:58 07:44 7.77
358 199 MEURIST JOEL BEL V1 122 7:59:14 07:44 7.76
359 644 BERTHOUX ARNAULD FRA V2 54 7:59:33 07:44 7.76
360 122 BRICOTTE LUDOVIC FRA V1 123 7:59:44 07:44 7.75
361 515 YOUF OLIVIER FRA SH 154 8:00:45 07:45 7.74
362 280 DUNAND LUDOVIC FRA V1 124 8:00:58 07:45 7.73
363 530 DEVOS ALEXIS FRA SH 155 8:01:10 07:46 7.73
364 611 LAVIE BETTY FRA SD 12 8:01:45 07:46 7.72
365 267 HAEGELIN CEDRIC FRA V1 125 8:02:09 07:47 7.72
366 641 FERAUCHE JEAN-MARIE BEL V3 9 8:02:11 07:47 7.71
367 93 DACQUIN FABRICE FRA V1 126 8:02:38 07:47 7.71
368 559 KAESMACHER PHILIPPE FRA V2 55 8:02:45 07:47 7.71
369 109 THIBEAU NICOLAS FRA V1 127 8:02:50 07:47 7.70
370 574 DURIAU JEAN-LUC BEL V3 10 8:04:23 07:49 7.68
371 165 FAZIO ANTHONY FRA SH 156 8:04:35 07:49 7.68
372 523 WALRYCK OLIVIER FRA V1 128 8:04:40 07:49 7.68
373 74 DUMONT VINCENT FRA SH 157 8:04:53 07:49 7.67
374 702 MARQUANT DANIEL FRA V2 56 8:05:00 07:49 7.67
375 174 ALLANO GILLES FRA V1 129 8:05:17 07:50 7.67
376 714 MANGOT MATTHIEU FRA V1 130 8:05:43 07:50 7.66
377 129 LAMBERT DAVID FRA V1 131 8:06:39 07:51 7.64
378 54 BAUCHART JEROME FRA V1 132 8:07:54 07:52 7.62
379 209 BELL ADRIEN FRA SH 158 8:08:03 07:52 7.62
380 445 EDART VALÉRIE FRA A1 10 8:08:39 07:53 7.61
381 684 CASSAR SIMON FRA SH 159 8:09:33 07:54 7.60
382 606 MARTINEZ PEÑALVER CARLOS ESP SH 160 8:09:35 07:54 7.60
383 287 SAUBLAINS ALAIN BEL V2 57 8:09:41 07:54 7.60
384 351 MORUCCI CHANTAL FRA A1 11 8:09:42 07:54 7.60
385 265 DESCAMPS GREGORY FRA V1 133 8:09:42 07:54 7.60
386 59 CLIQUÉ MANUEL FRA SH 161 8:10:31 07:55 7.58
387 720 CAPAI VIVIEN FRA V1 134 8:10:37 07:55 7.58
388 182 VANCAYZEELE GAUTHIER FRA SH 162 8:10:46 07:55 7.58
389 216 D'HALLEWIN HUBERT FRA V1 135 8:11:02 07:55 7.58
390 577 SINNESAEL XAVIER FRA V1 136 8:11:15 07:55 7.57
391 256 BENAZZOUZ DJAMEL FRA V2 58 8:11:31 07:56 7.57
392 26 LEFRANCQ SAMUEL FRA SH 163 8:11:36 07:56 7.57
393 471 KASPAR NICOLAS FRA SH 164 8:11:41 07:56 7.57
394 681 LAMBIN JORDY FRA SH 165 8:11:45 07:56 7.56
395 67 ROSE PHILIPPE FRA V1 137 8:12:19 07:56 7.56
396 57 MAROUX LUC FRA V1 138 8:12:19 07:56 7.56
397 336 USAI MARTIN FRA SH 166 8:12:44 07:57 7.55
398 72 DEPINOY JEOFFREY FRA V1 139 8:13:05 07:57 7.54
399 120 ROSE GRÉGOIRE FRA SH 167 8:13:30 07:58 7.54
400 278 JANSEN ANGELIQUE NLD A1 12 8:13:35 07:58 7.54
401 416 DEWAULLE CHRISTOPHE FRA V1 140 8:13:49 07:58 7.53
402 438 DOMINGUES DANIEL FRA V1 141 8:13:49 07:58 7.53
403 704 LEMAIRE FRANCOIS-OLIVIER FRA V2 59 8:13:50 07:58 7.53
404 703 POTTRAIN JEAN-PHILIPPE FRA V2 60 8:13:50 07:58 7.53
405 333 PANNEQUIN SERGE FRA V1 142 8:14:22 07:58 7.52
406 159 COLPAERT SAMUEL FRA V1 143 8:15:15 07:59 7.51
407 111 PAU STÉPHANE FRA V1 144 8:15:16 07:59 7.51
408 197 BREVERS DIDIER BEL SH 168 8:15:27 07:59 7.51
409 502 DANIELEWSKI REGIS FRA V1 145 8:16:06 08:00 7.50
410 326 BARISEAU MICKAËL FRA SH 169 8:16:20 08:00 7.49
411 64 DEVINEAUX NATHALIE FRA A1 13 8:18:28 08:02 7.46
412 563 BOIN JESSY FRA V1 146 8:18:32 08:02 7.46
413 63 VANDOOREN MICHEL FRA V1 147 8:19:00 08:03 7.45
414 34 CARESMEL GREGOIRE FRA SH 170 8:20:08 08:04 7.44
415 629 HALIPRÉ LAURENT FRA V1 148 8:20:24 08:04 7.43
416 85 GAUVAIN PASCAL BEL V1 149 8:20:44 08:05 7.43
417 56 MOROY CHRISTOPHE FRA V1 150 8:21:35 08:05 7.42
418 513 USAI JULIEN FRA SH 171 8:21:40 08:05 7.42
419 474 DERIN MAXENCE FRA SH 172 8:22:25 08:06 7.40
420 604 DUBAELE LAURENT FRA V1 151 8:22:32 08:06 7.40
421 60 PIETTE ANTHONY BEL SH 173 8:22:38 08:06 7.40
422 516 HERMANT YANNICK FRA V1 152 8:23:25 08:07 7.39
423 551 CHRÉTIEN FABIEN FRA SH 174 8:23:50 08:08 7.38
424 588 PRESSENSÉ ARNAUD FRA SH 175 8:24:13 08:08 7.38
425 235 VAN WOENSEL GÉRALD FRA V1 153 8:24:31 08:08 7.37
426 636 MICHELON ROMAIN FRA SH 176 8:24:42 08:08 7.37
427 489 GOETHALS CHRISTOPHE FRA V1 154 8:24:49 08:09 7.37
428 274 ANSART JEAN-MARIE FRA V1 155 8:25:38 08:09 7.36
429 540 ALLARD ERIC FRA V2 61 8:25:38 08:09 7.36
430 608 DOLLET THIERRY FRA V2 62 8:26:04 08:10 7.35
431 486 NOEL FRÉDÉRIC FRA SH 177 8:26:32 08:10 7.34
432 154 HOUDIN ERIC FRA SH 178 8:26:35 08:10 7.34
433 628 MALARME JEAN JACQUES FRA V4 1 8:27:03 08:11 7.34
434 630 DESCAMPS OLIVIER FRA V2 63 8:27:25 08:11 7.33
435 666 DE CLERCK DAVID FRA SH 179 8:27:47 08:11 7.33
436 622 VANDESOMPELE LAURENT FRA V2 64 8:27:51 08:11 7.32
437 543 LEROUX JÉRÔME FRA V1 156 8:27:54 08:12 7.32
438 161 LAVERSIN MÉLANIE FRA SD 13 8:27:58 08:12 7.32
439 89 MORTIER JEAN-CLAUDE FRA V2 65 8:28:08 08:12 7.32
440 288 CHENET HERVE FRA V2 66 8:28:16 08:12 7.32
441 570 DE COSTER GUILLAUME FRA SH 180 8:28:27 08:12 7.32
442 522 DESAUW FLORENT FRA SH 181 8:28:27 08:12 7.32
443 78 WANDERSCHEID JONATHAN FRA V1 157 8:28:40 08:12 7.31
444 582 SCHYNS THOMAS BEL SH 182 8:28:50 08:12 7.31
445 715 DEBUS SYLVAIN FRA V1 158 8:28:52 08:12 7.31
446 221 WROBEL FABRICE FRA V1 159 8:29:21 08:13 7.30
447 479 DESCAMPS THOMAS FRA SH 183 8:30:31 08:14 7.29
448 647 LAMBERT DAVID FRA SH 184 8:31:03 08:15 7.28
449 193 VALERE FRÉDÉRIC FRA V1 160 8:31:15 08:15 7.28
450 664 HANOUZET JANY FRA V3 11 8:31:17 08:15 7.28
451 354 DANTIGNY FLORENT FRA V1 161 8:31:31 08:15 7.27
452 592 LAURENT VINCENT FRA SH 185 8:32:15 08:16 7.26
453 639 WENDERBECQ JEAN LOUIS FRA V2 67 8:32:22 08:16 7.26
454 181 BRUNELLE SIMON FRA SH 186 8:32:39 08:16 7.26
455 52 ARNALDOS BENOIT FRA SH 187 8:33:01 08:16 7.25
456 127 MARQUETTE JEAN PAUL FRA V1 162 8:33:21 08:17 7.25
457 204 BLONDEAU MARC FRA V1 163 8:34:36 08:18 7.23
458 565 CARPENTIER FABIEN FRA V1 164 8:35:44 08:19 7.21
459 247 CLEMENT STÉPHANE FRA V2 68 8:35:57 08:19 7.21
460 248 CLEMENT CHARLINE FRA SD 14 8:35:57 08:19 7.21
461 184 CASAGRANDE CHRISTINE FRA A1 14 8:36:40 08:20 7.20
462 183 VERMOOTE FREDERIC FRA V1 165 8:36:41 08:20 7.20
463 615 DILLIES EDOUARD FRA SH 188 8:36:52 08:20 7.20
464 616 REGENT PIERRE HENRY FRA SH 189 8:36:52 08:20 7.20
465 210 PELUCCHI PAUL FRA V2 69 8:37:10 08:20 7.19
466 527 LE PRUNENEC ALIZEE FRA SD 15 8:37:19 08:21 7.19
467 339 DARRAS GUILLAUME FRA SH 190 8:37:19 08:21 7.19
468 457 NOREZ KEVIN FRA SH 191 8:37:44 08:21 7.19
469 169 MAYEUR JÉRÔME FRA V1 166 8:37:46 08:21 7.18
470 716 BLONDEEL BENOIT FRA V1 167 8:37:50 08:21 7.18
471 503 LUCAS BERTRAND FRA V1 168 8:39:09 08:22 7.17
472 501 ANDRIEUX SYLVAIN FRA V1 169 8:39:10 08:22 7.17
473 688 CROIZIER ISABELLE FRA A2 3 8:42:14 08:25 7.12
474 689 LARCHER SEBASTIEN FRA V1 170 8:42:15 08:25 7.12
475 717 BLARY SARAH FRA A1 15 8:44:21 08:27 7.09
476 718 LULKA DAVID FRA V1 171 8:44:23 08:27 7.09
477 663 DECROIX LAURENT FRA V1 172 8:44:23 08:27 7.09
478 29 ROBILLARD SEBASTIEN FRA SH 192 8:44:42 08:28 7.09
479 450 LEMAN GERARD FRA V2 70 8:44:43 08:28 7.09
480 137 HENNO BENOIT FRA SH 193 8:46:22 08:29 7.07
481 179 HENNO CHRISTOPHE FRA V1 173 8:46:22 08:29 7.07
482 573 MERET THIBAULT-LOUIS FRA SH 194 8:46:47 08:30 7.06
483 130 LESCROART ALEXANDRE FRA SH 195 8:46:48 08:30 7.06
484 466 WACHEUX FREDDY FRA V1 174 8:47:16 08:30 7.06
485 66 KUBIAK EMERIC FRA SH 196 8:47:32 08:31 7.05
486 444 GREVIN PASCAL FRA V2 71 8:47:39 08:31 7.05
487 456 LIENARD BENOIT FRA V1 175 8:48:00 08:31 7.05
488 337 PAGNIEZ EMMANUELLE FRA SD 16 8:48:01 08:31 7.05
489 509 LEMAIRE VINCENT FRA SH 197 8:48:29 08:31 7.04
490 71 PRZYMUSINSKI NICOLAS FRA SH 198 8:48:32 08:31 7.04
491 191 VAUCHEL ROMAIN FRA SH 199 8:48:32 08:31 7.04
492 121 VANEXEM SANDRINE FRA A1 16 8:49:58 08:33 7.02
493 529 BERNARD ALAIN FRA V3 12 8:50:51 08:34 7.01
494 286 BELIN PATRICK FRA V2 72 8:50:58 08:34 7.01
495 613 DUBAR NICOLAS FRA SH 200 8:51:12 08:34 7.00
496 609 PAUTY GREGOIRE FRA V1 176 8:52:05 08:35 6.99
497 610 COUSIN OLIVIER FRA V1 177 8:52:06 08:35 6.99
498 656 D'OVIDIO RAPHAEL BEL V1 178 8:52:27 08:35 6.99
499 699 CASSE HENRI BEL V2 73 8:52:45 08:36 6.98
500 269 DE THIER TANGUY FRA V2 74 8:52:59 08:36 6.98
501 114 VANDERBERG GÉRARD FRA V1 179 8:53:26 08:36 6.97
502 53 ITHOURBURU ERIC FRA V2 75 8:53:32 08:36 6.97
503 701 DUHAMEL MARTIN FRA SH 201 8:57:05 08:40 6.93
504 91 FASSARD NICOLAS FRA SH 202 8:57:06 08:40 6.93
505 518 CHANDELIER KÉVIN FRA SH 203 8:57:19 08:40 6.92
506 110 CHERMANNE CEDRIC FRA V1 180 8:58:59 08:42 6.90
507 112 WACSIN CHRISTOPHE FRA V2 76 8:58:59 08:42 6.90
508 222 TRISTRANT JULIEN FRA V1 181 8:59:20 08:42 6.90
509 552 PIRET JEAN FRA SH 204 9:00:21 08:43 6.88
510 134 KRAUSE SÉBASTIEN FRA V1 182 9:00:36 08:43 6.88
511 321 TIRLOY GUILLAUME FRA V1 183 9:01:04 08:44 6.88
512 79 INOUSS BADR FRA SH 205 9:04:15 08:47 6.84
513 708 BUREAU LAURENT FRA V1 184 9:05:18 08:48 6.82
514 44 STOVEN REMY FRA SH 206 9:06:02 08:48 6.81
515 524 BRUNIAUX MYRIAM BEL A2 4 9:08:03 08:50 6.79
516 94 DACQUIN ISABELLE FRA A1 17 9:10:36 08:53 6.76
517 449 FLAQUET RENE FRA V3 13 9:11:25 08:54 6.75
518 451 SOREAU JULIE FRA SD 17 9:12:13 08:54 6.74
519 6 DEGAND PATRICE FRA V2 77 9:13:57 08:56 6.72
520 229 ENDERLIN CHRISTELLE FRA A1 18 9:14:06 08:56 6.71
521 599 ZAOUI AHMED FRA V2 78 9:15:16 08:57 6.70
522 637 FONTAINE PAUL FRA SH 207 9:15:29 08:58 6.70